Puerto Plata, Dominican Republic

7:33 AM AST on August 30, 2016 (GMT -0400)
Gregorio Luperon International

Weather History for MDPP - June, 2013

Change the Weather History Date:

Sunday, June 30, 2013

  Actual Average Record
Temperature  
Mean Temperature 82 °F -  
Max Temperature 90 °F 87 °F 95 °F (1998)
Min Temperature 75 °F 75 °F 71 °F (2008)
Cooling Degree Days 18    
Growing Degree Days 32 (Base 50)    
Moisture  
Dew Point 76 °F    
Average Humidity 75    
Maximum Humidity 100    
Minimum Humidity 60    
Precipitation  
Precipitation 0.08 in - - ()
Sea Level Pressure  
Sea Level Pressure 29.98 in    
Wind  
Wind Speed 7 mph ()    
Max Wind Speed 23 mph    
Max Gust Speed -    
Visibility 7.2 miles    
Events Thunderstorm    
Averages and records for this station are not official NWS values.
T = Trace of Precipitation, MM = Missing Value Source: Averaged Metar Reports

Daily Weather History Graph

Daily Weather History Graph

Search for Another Location

Airport or City:

Trip Planner

Search our weather history database for the weather conditions in past years. The results will help you decide how hot, cold, wet, or windy it might be!

Date:

Astronomy

Jun. 30, 2013 Rise Set
Actual Time 6:06 AM AST 7:25 PM AST
Civil Twilight 5:42 AM AST 7:49 PM AST
Nautical Twilight 5:13 AM AST 8:18 PM AST
Astronomical Twilight 4:43 AM AST 8:48 PM AST
Moon 12:25 AM AST 1:09 PM AST
Length of Visible Light 14h 07m
Length of Day
13h 18m
Last Quarter, 45% of the Moon is Illuminated
Jun 30
Last Quarter
Jul 8
New
Jul 15
First Quarter
Jul 22
Full
Jul 29
Last Quarter

Hourly Weather History & Observations

Time (AST) Temp. Heat Index Dew Point Humidity Pressure Visibility Wind Dir Wind Speed Gust Speed Precip Events Conditions
2:00 AM 77.0 °F - 73.4 °F 89% 29.98 in 6.2 mi Calm Calm - N/A   Partly Cloudy
5:00 AM 75.2 °F - 75.2 °F 100% 29.98 in 6.2 mi Calm Calm - N/A   Partly Cloudy
8:00 AM 78 °F - 73 °F 82% 29.99 in 10 mi Calm Calm - -   Scattered Clouds
8:00 AM 78.8 °F - 73.4 °F 83% 29.98 in 6.2 mi Calm Calm - N/A   Partly Cloudy
9:00 AM 82.4 °F 89.5 °F 75.2 °F 79% 29.98 in 6.2 mi Calm Calm - N/A   Partly Cloudy
10:00 AM 86.0 °F 95.1 °F 75.2 °F 70% 30.01 in 6.2 mi ESE 11.5 mph - N/A   Scattered Clouds
11:00 AM 88 °F - 76 °F 60% 30.00 in 10 mi ENE 13.4 mph - -   Partly Cloudy
11:00 AM 87.8 °F 97.6 °F 75.2 °F 66% 29.98 in 6.2 mi ENE 13.8 mph - N/A   Scattered Clouds
12:00 PM 87.8 °F 99.7 °F 77.0 °F 70% 29.98 in 6.2 mi East 11.5 mph - N/A   Scattered Clouds
1:00 PM 87.8 °F 99.7 °F 77.0 °F 70% 29.98 in 6.2 mi East 16.1 mph - N/A   Scattered Clouds
2:00 PM 88 °F - 76 °F 61% 29.97 in 10 mi East 15.7 mph - -   Partly Cloudy
2:00 PM 87.8 °F 99.7 °F 77.0 °F 70% 29.95 in 6.2 mi East 16.1 mph - N/A   Scattered Clouds
3:00 PM 89.6 °F 102.2 °F 77.0 °F 66% 29.92 in 6.2 mi East 17.3 mph - N/A   Scattered Clouds
4:00 PM 89.6 °F 104.7 °F 78.8 °F 70% 29.95 in 6.2 mi East 17.3 mph - N/A   Scattered Clouds
5:00 PM 88 °F - 76 °F 61% 29.96 in 10 mi East 22.4 mph - -   Scattered Clouds
5:00 PM 87.8 °F 99.7 °F 77.0 °F 70% 29.95 in 6.2 mi East 23.0 mph - N/A   Scattered Clouds
6:00 PM 86.0 °F 96.9 °F 77.0 °F 74% 29.95 in 6.2 mi East 20.7 mph - N/A   Scattered Clouds
7:00 PM 82.4 °F 90.9 °F 77.0 °F 84% 29.95 in 6.2 mi East 15.0 mph - N/A   Scattered Clouds
8:00 PM 82 °F - 76 °F 76% 29.99 in 10 mi East 8.9 mph - -   Scattered Clouds
8:00 PM 82.4 °F 89.5 °F 75.2 °F 79% 29.98 in 6.2 mi East 9.2 mph - N/A   Scattered Clouds
11:00 PM 81 °F - 76 °F 82% 30.03 in 10 mi Calm Calm - - Thunderstorm Thunderstorm
11:00 PM 80.6 °F 87.1 °F 77.0 °F 89% 30.01 in 6.2 mi Calm Calm - N/A Thunderstorm Thunderstorm